Temperature
20 20 20 20 19 19 19 19 19 19 19 19 19 19 19 19 19 19 19 19 19 19 19 19 19 19 19 19 19 19 19 19 19 19 19 19 19 18 18 18 18 18 18
20 20 20 20 19 19 19 19 19 19 19 19 19 19 19 19 19 19 19 19 19 19 19 19 19 19 19 19 19 19 19 19 19 19 19 19 18 18 18 18 18 18 18
20 20 20 19 19 19 19 19 19 19 19 19 19 19 19 19 19 19 19 19 19 19 19 19 19 19 19 19 19 19 19 19 19 19 18 18 18 18 18 18 18 18 18
20 20 20 20 19 19 19 19 19 19 19 19 19 19 19 19 19 19 19 19 19 19 19 19 19 19 19 19 19 19 19 19 19 18 18 18 18 18 18 18 18 18 18
20 20 20 20 20 19 19 19 19 19 19 19 19 19 19 19 19 19 19 19 19 19 19 19 19 19 19 19 19 19 19 19 18 18 18 18 18 18 18 18 18 18 18
20 20 20 20 20 19 19 19 19 19 19 19 19 19 19 19 19 19 18 18 18 18 18 18 19 19 19 19 19 19 19 18 18 18 18 18 18 18 18 18 18 18 18
20 20 20 20 19 19 19 19 19 19 19 19 19 19 19 19 19 19 19 19 18 18 18 18 18 18 19 19 19 19 19 18 18 18 18 18 18 18 18 18 18 18 17
20 20 20 20 19 19 19 19 19 19 19 19 19 19 19 19 19 19 19 18 18 18 18 18 18 18 18 19 19 19 19 18 18 18 18 18 18 18 18 18 18 18 17
20 20 20 19 19 19 19 19 19 19 19 19 19 19 19 19 18 19 19 18 18 18 18 18 18 18 18 19 19 19 19 19 18 18 18 18 18 18 18 18 18 18 18
21 20 19 19 19 19 19 19 19 19 19 19 19 19 19 19 19 18 18 18 18 18 18 18 18 18 18 19 19 19 19 19 19 18 18 19 18 18 18 18 18 18 18
21 20 20 19 19 19 19 19 19 19 19 19 19 19 18 18 18 18 18 18 18 18 18 18 19 18 18 19 19 19 19 19 19 18 18 19 19 19 18 18 18 18 18
21 20 20 20 19 19 19 19 19 19 19 19 19 19 18 18 18 18 18 18 18 18 18 18 18 18 18 18 18 19 19 19 19 19 19 19 19 18 18 18 18 18 18
21 20 20 20 20 19 19 19 19 19 19 18 18 18 18 18 18 18 18 18 18 18 18 18 18 18 18 18 18 19 19 19 19 19 19 19 19 19 18 18 18 18 17
21 20 20 20 20 20 19 19 19 19 19 18 18 18 18 18 18 18 18 18 18 18 18 18 18 18 18 18 18 18 18 19 19 19 19 19 19 19 18 18 18 18 18
21 20 20 20 20 20 19 19 19 19 19 19 19 19 19 19 19 18 18 18 18 18 18 18 18 18 18 18 18 18 18 19 19 19 19 19 19 19 19 19 18 18 18
21 20 20 20 20 20 20 19 19 19 19 19 19 19 19 19 19 18 18 18 18 18 18 18 18 18 18 18 18 18 18 19 19 18 19 19 19 19 19 19 18 18 18
21 20 20 20 20 20 19 19 19 19 19 19 19 19 19 19 19 19 18 18 18 18 18 18 18 18 18 18 18 18 19 19 19 19 19 19 19 19 19 19 19 18 18
21 20 20 20 20 20 19 19 19 19 19 19 19 19 19 19 19 18 18 18 18 18 18 18 18 18 18 18 18 18 19 19 19 19 19 19 19 18 19 19 19 18 18
21 21 20 20 20 20 20 19 19 19 19 19 19 19 19 19 18 19 18 18 18 18 18 18 18 18 18 18 18 19 19 19 19 19 19 19 19 18 18 18 18 18 18
21 21 20 20 20 20 20 19 19 19 19 19 19 19 19 19 19 19 19 18 18 18 18 18 18 18 18 18 19 19 19 19 19 19 19 19 19 19 18 19 18 19 18
21 21 21 20 20 20 20 20 20 19 19 19 19 19 19 19 19 19 19 18 18 18 18 18 18 18 18 19 18 19 19 19 19 19 19 19 19 19 19 19 19 19 19
21 21 21 20 20 20 20 20 20 20 19 19 19 19 19 19 19 19 19 19 19 19 18 18 18 18 19 18 18 18 19 19 19 20 19 19 19 19 19 19 19 18 18
22 21 21 21 20 20 20 20 20 20 19 19 19 19 19 19 19 19 19 19 19 19 19 19 19 19 19 19 19 19 19 19 19 20 20 20 19 19 19 19 19 19 18
22 22 21 21 21 20 20 20 20 20 20 20 20 19 19 19 19 19 19 19 19 19 19 19 19 19 19 19 19 19 19 19 19 19 19 20 19 19 19 19 19 19 18
23 22 21 21 20 20 20 20 20 20 20 20 20 19 19 19 19 19 19 19 19 19 19 19 19 19 19 19 19 19 19 19 19 19 19 19 19 19 19 19 19 19 19
23 22 21 21 21 20 20 20 20 20 20 20 20 20 19 19 19 19 19 19 19 19 19 19 19 19 19 19 19 19 19 19 19 19 19 19 19 19 19 19 19 19 19
Wind_Speed
8 9 11 12 13 13 15 15 16 16 16 16 16 17 18 18 19 19 20 20 20 19 19 18 17 16 15 15 15 15 14 15 15 16 16 15 15 14 13 13 14 14 15
10 10 13 13 12 13 14 15 16 16 16 17 17 17 18 18 19 19 19 19 19 19 18 18 17 16 15 15 15 14 14 14 14 15 15 14 13 12 11 11 13 14 15
11 11 13 13 13 14 15 15 16 16 17 17 17 17 18 18 19 19 19 18 18 18 17 17 16 16 14 14 14 13 13 13 13 14 14 13 12 12 13 15 16 15 14
11 11 13 14 14 14 14 16 16 16 17 17 18 18 18 18 19 19 18 18 18 17 17 16 16 15 14 14 13 12 11 11 11 11 9 11 12 13 13 14 14 13 12
12 13 14 15 14 14 14 15 16 17 17 18 18 18 18 18 18 18 18 18 18 17 16 15 14 14 13 13 11 10 9 8 8 7 7 13 13 13 13 13 12 12 12
13 14 15 15 15 14 13 14 15 16 17 17 17 17 17 18 18 17 18 18 17 17 16 14 14 13 13 12 10 8 7 6 5 5 10 14 13 13 12 12 11 11 10
12 13 14 15 14 14 13 13 14 15 16 17 17 17 17 17 17 17 18 18 17 16 15 14 13 12 12 12 9 7 6 4 4 5 10 13 14 14 12 11 11 11 10
13 12 13 14 14 13 13 13 14 15 16 17 17 17 17 17 17 16 17 17 16 16 15 14 12 12 12 10 8 6 4 3 2 5 11 13 15 14 12 11 10 10 9
12 12 11 11 12 13 12 13 14 16 16 16 16 17 17 17 17 17 17 17 16 15 15 14 12 12 10 9 7 6 4 4 2 4 10 13 15 13 12 11 10 9 9
10 11 10 10 11 11 11 12 15 16 16 16 16 17 18 17 16 16 16 16 16 15 14 13 12 11 10 9 7 6 5 5 5 4 10 13 15 13 11 10 10 9 8
10 9 9 9 10 9 10 11 13 14 14 15 15 17 16 14 14 15 16 17 16 15 14 13 12 11 9 8 8 7 6 6 3 6 10 15 15 13 12 10 10 9 9
9 9 8 7 9 9 8 9 9 10 11 11 11 13 12 11 12 14 16 17 16 15 14 13 12 11 9 8 9 8 7 6 4 7 12 18 15 13 12 11 10 9 9
9 9 8 6 6 7 6 7 6 7 8 9 10 11 10 10 9 10 10 12 13 13 11 11 11 9 9 7 7 7 7 5 3 7 13 18 16 13 12 11 11 10 10
10 9 8 7 5 4 5 5 6 6 6 6 9 10 8 5 5 6 6 8 9 9 8 8 6 6 6 6 6 5 4 3 2 6 12 16 15 14 12 12 11 11 11
10 9 9 7 5 4 3 3 6 5 6 8 9 8 9 6 6 6 4 5 6 7 7 5 4 4 4 4 4 4 2 2 2 5 8 14 15 14 13 13 12 12 12
9 9 9 8 7 4 3 2 3 5 6 7 7 8 8 6 5 5 5 4 4 5 5 4 3 4 3 3 3 3 2 2 2 5 7 10 13 15 14 14 14 13 13
10 9 9 9 8 5 4 4 4 4 6 5 6 8 7 7 6 5 5 5 4 6 6 4 4 3 3 3 3 3 3 3 3 4 7 8 10 13 15 15 15 14 14
10 9 8 8 9 7 5 3 3 4 5 5 6 7 8 7 7 5 4 5 6 6 5 4 4 3 3 2 3 3 2 3 4 5 7 9 9 10 13 16 15 15 15
10 9 7 7 8 7 6 4 3 3 4 5 6 6 7 8 8 5 4 4 5 4 4 5 5 3 3 2 3 3 3 3 4 6 5 7 8 9 10 13 16 16 16
10 9 8 7 7 6 6 4 3 4 4 4 4 5 7 7 7 5 4 5 5 4 4 3 4 3 3 3 4 3 3 4 4 4 4 5 7 9 10 11 12 13 16
10 9 8 7 7 6 5 5 5 5 5 5 5 6 7 6 6 4 3 5 4 4 4 4 3 4 4 3 2 2 3 4 5 4 4 4 4 6 8 10 11 10 11
11 10 9 8 8 7 5 4 4 5 5 5 4 6 7 7 6 7 5 5 5 4 4 4 4 3 4 3 2 2 1 2 3 5 5 5 5 4 5 9 10 10 9
13 12 10 9 8 8 6 4 4 4 4 4 5 6 6 7 6 4 5 5 4 4 4 5 5 5 3 3 3 2 2 2 2 2 4 4 4 3 3 4 7 9 10
13 13 10 9 8 7 7 6 6 5 5 5 6 6 7 7 7 7 6 6 5 4 5 6 6 4 4 4 3 3 3 2 1 1 2 2 4 4 4 4 4 6 8
13 13 11 9 8 7 7 6 6 5 4 4 5 6 7 6 7 7 7 6 6 5 6 6 4 5 4 4 3 3 3 3 4 3 2 2 3 3 4 4 3 4 7
12 12 12 10 8 8 7 6 6 6 5 5 5 6 6 5 6 8 8 7 7 6 6 6 5 6 4 4 3 3 2 2 3 3 3 3 3 3 4 3 4 3 4
Wind_Direction
90 107 113 111 113 119 122 122 123 123 123 122 121 118 118 119 119 118 120 123 124 125 124 123 123 121 118 115 112 112 112 109 108 107 106 106 106 106 109 115 113 106 110
96 106 110 112 118 124 125 123 124 126 126 126 126 123 123 123 124 123 123 124 125 126 125 124 124 122 120 118 118 119 119 118 118 118 117 111 108 108 108 106 104 113 113
99 106 106 110 115 121 124 124 126 129 129 128 128 128 127 127 128 128 128 127 126 126 126 125 125 124 122 122 123 124 127 130 132 135 133 122 115 108 105 103 106 113 113
98 104 108 112 115 120 124 126 129 131 131 130 130 131 131 130 132 132 132 130 129 128 128 128 127 125 125 126 128 131 136 140 146 153 150 128 121 116 113 110 112 114 114
96 104 107 112 117 122 123 125 128 130 133 133 133 134 134 135 136 135 134 132 131 130 130 131 130 127 127 129 132 140 148 153 164 170 129 112 113 124 121 120 120 120 120
98 103 109 110 115 118 121 124 128 131 134 136 137 138 138 139 139 140 136 135 134 133 134 133 133 132 133 134 137 146 157 169 192 170 130 120 122 131 130 128 128 127 125
102 104 112 113 116 118 121 124 130 134 137 138 139 140 140 139 139 139 139 138 138 137 135 133 134 133 138 141 146 160 175 184 215 150 123 120 127 136 137 136 134 134 132
106 107 115 118 120 121 124 127 133 137 139 141 141 141 142 142 140 139 140 139 139 139 139 138 135 133 137 144 156 180 197 226 181 140 122 122 133 138 141 141 140 143 143
107 113 116 121 121 122 125 128 134 138 138 140 142 143 145 144 144 142 142 144 145 145 144 142 140 137 139 148 163 192 219 251 271 143 126 127 137 143 147 148 150 151 151
104 112 115 122 123 124 126 129 135 139 141 142 144 146 147 148 149 150 150 150 151 149 149 148 146 147 149 156 174 201 233 264 239 145 123 134 143 148 153 158 160 161 161
102 103 106 113 123 124 124 132 138 139 142 146 150 151 152 155 155 157 154 154 156 155 154 156 157 157 160 174 194 213 242 251 222 130 126 141 149 154 160 165 168 171 174
110 108 106 112 120 122 124 126 131 137 140 148 151 155 159 161 155 150 152 156 157 158 159 163 167 170 181 190 202 215 237 230 204 136 141 149 155 161 166 172 177 182 185
116 110 111 106 108 120 123 134 137 135 140 150 152 155 158 152 149 146 153 159 165 168 171 173 181 190 195 195 189 206 227 238 182 136 150 156 162 169 175 181 188 195 197
119 117 119 112 105 97 112 127 134 138 141 142 145 152 148 146 147 149 158 166 173 173 173 173 188 194 196 196 197 212 230 253 145 125 154 162 168 176 184 192 197 200 202
126 127 123 121 112 95 89 124 129 132 138 140 145 158 154 149 152 154 162 164 177 175 171 173 183 187 190 202 210 209 223 236 154 140 158 171 176 183 191 197 202 204 207
132 133 130 133 130 128 127 122 118 131 134 138 146 149 153 149 144 148 151 161 173 173 164 168 179 183 195 200 207 216 219 229 181 153 168 183 188 192 197 201 204 207 210
140 138 142 145 142 145 148 151 141 151 145 145 143 143 153 151 148 157 157 166 177 174 165 174 188 195 191 191 200 211 213 215 214 182 177 191 196 199 202 205 207 209 212
145 145 155 154 147 153 153 163 155 157 143 144 148 150 157 154 159 162 168 173 174 178 174 174 184 184 187 193 207 219 211 209 211 205 199 199 195 198 204 209 210 213 216
146 150 157 143 147 153 154 164 156 140 139 149 151 156 157 163 163 170 177 166 174 176 174 184 173 174 183 198 218 216 215 215 211 220 207 204 197 193 193 203 208 212 216
150 152 155 152 149 152 157 160 159 150 143 145 146 154 155 166 173 181 171 170 180 177 183 182 161 166 194 211 228 227 225 225 211 222 214 210 203 198 195 193 198 212 217
156 157 161 164 156 159 164 171 173 168 165 156 154 153 161 175 180 184 175 160 176 184 183 176 169 186 205 218 220 249 255 231 209 205 215 218 212 206 196 184 189 199 206
164 166 165 169 167 170 172 180 177 171 170 164 160 150 171 180 183 184 183 178 175 181 182 184 187 204 219 210 205 219 252 268 241 219 201 209 214 208 204 200 193 194 200
171 173 173 172 168 176 169 175 180 164 175 161 156 160 173 182 188 187 176 183 180 186 183 190 199 206 213 227 222 195 204 231 261 261 224 206 201 208 215 216 199 198 206
175 173 168 166 168 174 173 178 183 181 187 180 171 169 174 186 188 190 187 183 193 196 191 202 198 200 207 224 237 227 226 219 210 281 280 251 216 212 213 231 223 200 200
173 169 166 164 167 171 179 184 188 190 193 181 169 167 175 183 192 193 186 186 195 197 198 209 196 211 216 223 227 226 232 220 220 222 250 264 264 237 212 209 226 211 199
169 167 166 164 166 171 181 185 190 195 194 191 181 174 186 191 195 196 191 191 195 199 201 203 200 215 221 231 246 245 233 229 239 234 234 242 250 259 241 213 210 211 205
Height
1479 1478 1478 1477 1478 1480 1482 1485 1487 1490 1493 1495 1498 1500 1503 1506 1508 1511 1513 1516 1519 1522 1524 1527 1530 1533 1535 1537 1540 1542 1544 1545 1547 1548 1550 1551 1552 1553 1554 1556 1557 1558 1559
1480 1479 1478 1478 1478 1480 1484 1486 1489 1492 1494 1497 1499 1502 1505 1508 1510 1513 1516 1518 1521 1524 1526 1529 1532 1535 1537 1539 1541 1543 1545 1547 1548 1550 1551 1552 1554 1555 1556 1557 1558 1559 1561
1481 1480 1479 1479 1479 1481 1484 1488 1490 1493 1496 1498 1501 1504 1507 1509 1512 1515 1518 1520 1523 1526 1528 1531 1534 1536 1538 1541 1542 1544 1546 1548 1550 1551 1553 1554 1555 1556 1558 1559 1560 1561 1562
1482 1482 1482 1482 1482 1484 1487 1489 1492 1494 1497 1500 1503 1506 1509 1512 1514 1517 1519 1522 1525 1527 1530 1533 1535 1538 1540 1542 1544 1546 1548 1550 1551 1553 1555 1556 1557 1558 1559 1561 1562 1563 1564
1484 1483 1484 1485 1486 1487 1489 1491 1493 1496 1499 1501 1504 1507 1510 1513 1516 1519 1521 1524 1527 1529 1532 1534 1537 1539 1541 1543 1545 1548 1550 1551 1553 1555 1557 1558 1559 1560 1561 1562 1563 1564 1565
1486 1486 1486 1487 1488 1490 1491 1493 1495 1497 1500 1503 1506 1509 1512 1515 1518 1520 1523 1525 1528 1530 1533 1536 1538 1540 1542 1544 1547 1549 1551 1553 1554 1556 1558 1559 1560 1561 1562 1563 1565 1566 1567
1489 1489 1489 1490 1491 1492 1493 1495 1497 1499 1502 1505 1508 1511 1514 1517 1519 1522 1524 1527 1530 1532 1535 1537 1539 1541 1543 1546 1548 1550 1552 1554 1555 1557 1559 1560 1561 1562 1563 1564 1565 1566 1567
1491 1491 1491 1492 1494 1494 1495 1496 1498 1500 1503 1506 1510 1512 1515 1518 1521 1523 1525 1528 1531 1534 1536 1539 1541 1543 1545 1548 1550 1552 1554 1554 1557 1559 1560 1561 1562 1563 1564 1565 1566 1567 1568
1493 1493 1494 1495 1496 1497 1497 1498 1499 1502 1505 1508 1511 1514 1517 1520 1523 1525 1528 1530 1533 1536 1538 1540 1542 1545 1547 1549 1551 1553 1554 1556 1558 1560 1561 1562 1563 1564 1565 1566 1567 1568 1569
1496 1496 1496 1497 1498 1499 1500 1500 1502 1504 1507 1510 1513 1516 1519 1522 1525 1527 1529 1532 1535 1537 1539 1542 1544 1546 1548 1550 1552 1554 1556 1558 1560 1561 1561 1562 1563 1564 1565 1566 1567 1568 1569
1499 1499 1499 1500 1501 1502 1502 1503 1504 1507 1509 1512 1515 1517 1520 1523 1526 1529 1531 1534 1536 1538 1541 1543 1545 1548 1550 1552 1554 1556 1557 1558 1560 1561 1562 1563 1564 1564 1565 1566 1567 1568 1569
1500 1501 1502 1502 1503 1505 1505 1505 1507 1509 1511 1514 1516 1519 1522 1525 1528 1531 1533 1535 1538 1540 1542 1545 1547 1549 1551 1553 1555 1557 1558 1559 1561 1561 1562 1563 1564 1564 1565 1566 1567 1568 1568
1502 1503 1504 1504 1505 1506 1507 1508 1509 1511 1513 1515 1518 1521 1523 1527 1529 1532 1534 1537 1539 1541 1543 1546 1548 1550 1552 1554 1556 1558 1559 1560 1561 1562 1562 1563 1564 1564 1565 1565 1566 1567 1568
1503 1504 1505 1506 1506 1508 1509 1510 1512 1513 1515 1517 1519 1522 1525 1527 1530 1532 1535 1537 1540 1542 1544 1546 1548 1550 1552 1555 1556 1558 1559 1560 1561 1562 1562 1563 1563 1563 1564 1564 1565 1566 1566
1504 1505 1506 1507 1507 1509 1510 1512 1513 1515 1517 1519 1520 1523 1526 1528 1531 1533 1536 1538 1540 1542 1544 1546 1548 1550 1552 1554 1556 1558 1559 1560 1561 1561 1562 1562 1562 1563 1563 1563 1564 1564 1565
1504 1506 1507 1507 1508 1510 1511 1513 1515 1516 1518 1520 1522 1524 1527 1529 1531 1534 1536 1538 1540 1542 1544 1546 1548 1550 1552 1554 1556 1557 1558 1560 1560 1560 1561 1561 1561 1562 1562 1563 1563 1563 1564
1504 1506 1507 1508 1509 1510 1512 1514 1515 1517 1519 1521 1523 1525 1527 1529 1532 1534 1536 1538 1540 1542 1544 1546 1548 1550 1552 1554 1555 1557 1558 1558 1559 1560 1560 1560 1560 1561 1561 1561 1562 1562 1562
1504 1506 1507 1509 1509 1511 1512 1514 1516 1518 1519 1521 1523 1525 1527 1530 1532 1534 1536 1538 1540 1542 1544 1546 1548 1549 1551 1553 1554 1555 1556 1557 1558 1558 1558 1559 1559 1559 1560 1560 1561 1561 1561
1503 1505 1507 1509 1510 1511 1513 1515 1516 1517 1519 1521 1523 1526 1527 1530 1532 1534 1536 1538 1540 1542 1543 1545 1547 1549 1550 1552 1553 1554 1555 1556 1556 1557 1557 1558 1558 1558 1558 1559 1559 1559 1559
1503 1505 1506 1508 1510 1511 1513 1515 1516 1518 1519 1522 1524 1526 1528 1530 1532 1534 1535 1537 1539 1541 1543 1545 1546 1547 1549 1550 1552 1553 1553 1554 1555 1555 1556 1557 1557 1557 1557 1557 1557 1557 1557
1501 1503 1505 1507 1509 1511 1513 1514 1516 1518 1520 1522 1524 1526 1527 1529 1531 1533 1535 1537 1538 1540 1542 1544 1545 1546 1548 1549 1551 1551 1552 1552 1553 1553 1554 1555 1555 1556 1556 1555 1555 1555 1555
1499 1502 1504 1506 1508 1510 1512 1514 1516 1518 1520 1522 1524 1525 1527 1529 1531 1533 1534 1536 1537 1539 1540 1542 1544 1545 1546 1548 1549 1550 1550 1551 1551 1551 1552 1553 1553 1554 1554 1554 1553 1553 1553
1497 1499 1502 1504 1507 1509 1511 1513 1516 1518 1520 1522 1523 1524 1526 1528 1530 1532 1533 1535 1536 1538 1539 1541 1542 1543 1544 1546 1547 1549 1549 1549 1549 1549 1550 1550 1551 1551 1551 1552 1551 1551 1551
1495 1497 1500 1502 1505 1507 1509 1511 1514 1516 1518 1520 1521 1523 1525 1527 1529 1530 1532 1533 1535 1536 1538 1539 1540 1542 1543 1544 1545 1546 1547 1547 1548 1547 1548 1548 1548 1548 1548 1549 1548 1548 1548
1493 1495 1498 1500 1503 1505 1507 1510 1512 1514 1516 1519 1520 1522 1524 1525 1527 1529 1530 1531 1533 1534 1536 1537 1538 1540 1541 1542 1543 1544 1544 1545 1545 1546 1545 1545 1545 1545 1546 1546 1546 1545 1545
1491 1493 1495 1498 1500 1502 1505 1507 1510 1512 1514 1517 1518 1520 1522 1523 1525 1526 1528 1529 1530 1532 1533 1535 1536 1537 1538 1539 1540 1541 1542 1543 1543 1543 1543 1543 1542 1542 1543 1543 1543 1543 1543